Time,TemperatureF,DewpointF,PressureIn,WindDirection,WindDirectionDegrees,WindSpeedMPH,WindSpeedGustMPH,Humidity,HourlyPrecipIn,Conditions,Clouds,dailyrainin,SoftwareType,DateUTC
2013-04-08 00:03:00,60.0,52.4,29.90,West,279,14.0,17.0,76,0.00,,,0.00,Wunderground v.1.15,2013-04-08 05:03:00,
2013-04-08 00:09:00,59.8,52.6,29.90,West,279,18.0,19.0,77,0.00,,,0.00,Wunderground v.1.15,2013-04-08 05:09:00,
2013-04-08 00:14:00,59.6,52.4,29.90,SE,142,18.0,20.0,77,0.00,,,0.00,Wunderground v.1.15,2013-04-08 05:14:00,
2013-04-08 00:20:00,59.4,52.2,29.90,SE,140,18.0,18.0,77,0.00,,,0.00,Wunderground v.1.15,2013-04-08 05:20:00,
2013-04-08 00:25:00,59.4,52.2,29.90,SE,146,18.0,21.0,77,0.00,,,0.00,Wunderground v.1.15,2013-04-08 05:25:00,
2013-04-08 00:30:00,59.5,52.3,29.90,SE,146,19.0,19.0,77,0.00,,,0.00,Wunderground v.1.15,2013-04-08 05:30:00,
2013-04-08 00:35:00,59.6,51.7,29.90,SE,140,19.0,21.0,75,0.00,,,0.00,Wunderground v.1.15,2013-04-08 05:35:00,
2013-04-08 00:42:00,60.0,51.7,29.90,West,279,14.0,22.0,74,0.00,,,0.00,Wunderground v.1.15,2013-04-08 05:42:00,
2013-04-08 00:48:00,60.5,51.8,29.91,SSE,147,18.0,22.0,73,0.00,,,0.00,Wunderground v.1.15,2013-04-08 05:48:00,
2013-04-08 00:53:00,60.8,51.3,29.90,West,279,19.0,20.0,71,0.00,,,0.00,Wunderground v.1.15,2013-04-08 05:53:00,
2013-04-08 00:59:00,61.1,51.6,29.90,SE,132,14.0,20.0,71,0.00,,,0.00,Wunderground v.1.15,2013-04-08 05:59:00,
2013-04-08 01:04:00,61.5,51.6,29.90,SSE,148,15.0,18.0,70,0.00,,,0.00,Wunderground v.1.15,2013-04-08 06:04:00,
2013-04-08 01:10:00,61.6,51.3,29.90,SSE,152,13.0,17.0,69,0.00,,,0.00,Wunderground v.1.15,2013-04-08 06:10:00,
2013-04-08 01:15:00,61.8,51.5,29.90,SSE,151,18.0,18.0,69,0.00,,,0.00,Wunderground v.1.15,2013-04-08 06:15:00,
2013-04-08 01:20:00,61.9,51.6,29.90,SSE,150,10.0,15.0,69,0.00,,,0.00,Wunderground v.1.15,2013-04-08 06:20:00,
2013-04-08 01:26:00,61.9,51.6,29.90,SSE,147,15.0,15.0,69,0.00,,,0.00,Wunderground v.1.15,2013-04-08 06:26:00,
2013-04-08 01:31:00,61.8,51.5,29.90,SE,142,11.0,15.0,69,0.00,,,0.00,Wunderground v.1.15,2013-04-08 06:31:00,
2013-04-08 01:37:00,61.7,51.4,29.90,SE,132,16.0,17.0,69,0.00,,,0.00,Wunderground v.1.15,2013-04-08 06:37:00,
2013-04-08 01:42:00,61.5,51.6,29.90,SE,140,13.0,19.0,70,0.00,,,0.00,Wunderground v.1.15,2013-04-08 06:42:00,
2013-04-08 01:48:00,61.5,51.6,29.89,SE,138,15.0,19.0,70,0.00,,,0.00,Wunderground v.1.15,2013-04-08 06:48:00,
2013-04-08 01:53:00,61.4,51.5,29.89,SE,138,16.0,16.0,70,0.00,,,0.00,Wunderground v.1.15,2013-04-08 06:53:00,
2013-04-08 01:59:00,61.3,51.4,29.89,SE,137,15.0,17.0,70,0.00,,,0.00,Wunderground v.1.15,2013-04-08 06:59:00,
2013-04-08 02:04:00,61.2,51.3,29.89,SE,137,14.0,17.0,70,0.00,,,0.00,Wunderground v.1.15,2013-04-08 07:04:00,
2013-04-08 02:09:00,61.1,51.2,29.89,West,279,16.0,18.0,70,0.00,,,0.00,Wunderground v.1.15,2013-04-08 07:09:00,
2013-04-08 02:14:00,61.1,51.2,29.89,SE,131,15.0,19.0,70,0.00,,,0.00,Wunderground v.1.15,2013-04-08 07:14:00,
2013-04-08 02:19:00,61.0,51.1,29.89,SE,136,18.0,19.0,70,0.00,,,0.00,Wunderground v.1.15,2013-04-08 07:19:00,
2013-04-08 02:24:00,61.0,51.1,29.89,SE,131,16.0,20.0,70,0.00,,,0.00,Wunderground v.1.15,2013-04-08 07:24:00,
2013-04-08 02:29:00,61.0,51.1,29.88,West,279,16.0,20.0,70,0.00,,,0.00,Wunderground v.1.15,2013-04-08 07:29:00,
2013-04-08 02:34:00,60.9,51.0,29.88,SE,131,15.0,18.0,70,0.00,,,0.00,Wunderground v.1.15,2013-04-08 07:34:00,
2013-04-08 02:39:00,60.8,51.0,29.88,West,279,16.0,19.0,70,0.00,,,0.00,Wunderground v.1.15,2013-04-08 07:39:00,
2013-04-08 02:44:00,60.7,50.9,29.88,SE,129,16.0,20.0,70,0.00,,,0.00,Wunderground v.1.15,2013-04-08 07:44:00,
2013-04-08 02:49:00,60.6,50.8,29.87,SE,135,16.0,20.0,70,0.00,,,0.00,Wunderground v.1.15,2013-04-08 07:49:00,
2013-04-08 02:54:00,60.4,51.0,29.87,SE,134,17.0,20.0,71,0.00,,,0.00,Wunderground v.1.15,2013-04-08 07:54:00,
2013-04-08 02:59:00,60.3,50.9,29.87,SE,131,17.0,20.0,71,0.00,,,0.00,Wunderground v.1.15,2013-04-08 07:59:00,
2013-04-08 03:04:00,60.2,50.8,29.86,SE,142,16.0,20.0,71,0.00,,,0.00,Wunderground v.1.15,2013-04-08 08:04:00,
2013-04-08 03:09:00,60.1,50.7,29.86,SE,140,19.0,20.0,71,0.00,,,0.00,Wunderground v.1.15,2013-04-08 08:09:00,
2013-04-08 03:15:00,59.9,50.5,29.86,SE,136,18.0,22.0,71,0.00,,,0.00,Wunderground v.1.15,2013-04-08 08:15:00,
2013-04-08 03:20:00,59.8,50.4,29.86,West,279,20.0,20.0,71,0.00,,,0.00,Wunderground v.1.15,2013-04-08 08:20:00,
2013-04-08 03:25:00,59.7,50.7,29.85,SE,136,18.0,22.0,72,0.00,,,0.00,Wunderground v.1.15,2013-04-08 08:25:00,
2013-04-08 03:30:00,59.7,50.7,29.85,SE,126,21.0,21.0,72,0.00,,,0.00,Wunderground v.1.15,2013-04-08 08:30:00,
2013-04-08 03:35:00,59.8,50.8,29.84,SE,135,21.0,22.0,72,0.00,,,0.00,Wunderground v.1.15,2013-04-08 08:35:00,
2013-04-08 03:40:00,59.8,50.4,29.84,SE,127,19.0,23.0,71,0.00,,,0.00,Wunderground v.1.15,2013-04-08 08:40:00,
2013-04-08 03:45:00,59.9,50.5,29.84,SE,141,24.0,27.0,71,0.00,,,0.00,Wunderground v.1.15,2013-04-08 08:45:00,
2013-04-08 03:50:00,60.0,50.6,29.84,SE,134,23.0,24.0,71,0.00,,,0.00,Wunderground v.1.15,2013-04-08 08:50:00,
2013-04-08 03:55:00,60.2,50.8,29.84,West,279,19.0,28.0,71,0.00,,,0.00,Wunderground v.1.15,2013-04-08 08:55:00,
2013-04-08 04:00:00,60.5,51.0,29.84,SE,128,20.0,23.0,71,0.00,,,0.00,Wunderground v.1.15,2013-04-08 09:00:00,
2013-04-08 04:05:00,60.6,50.8,29.84,SE,138,20.0,24.0,70,0.00,,,0.00,Wunderground v.1.15,2013-04-08 09:05:00,
2013-04-08 04:10:00,60.9,51.0,29.84,SE,141,18.0,22.0,70,0.00,,,0.00,Wunderground v.1.15,2013-04-08 09:10:00,
2013-04-08 04:15:00,61.2,51.3,29.84,SE,142,17.0,26.0,70,0.00,,,0.00,Wunderground v.1.15,2013-04-08 09:15:00,
2013-04-08 04:22:00,61.4,51.1,29.84,SE,128,22.0,22.0,69,0.00,,,0.00,Wunderground v.1.15,2013-04-08 09:22:00,
2013-04-08 04:27:00,61.4,51.5,29.84,West,279,16.0,22.0,70,0.00,,,0.00,Wunderground v.1.15,2013-04-08 09:27:00,
2013-04-08 04:32:00,61.6,51.3,29.84,SE,130,20.0,20.0,69,0.00,,,0.00,Wunderground v.1.15,2013-04-08 09:32:00,
2013-04-08 04:37:00,61.6,51.3,29.84,SE,126,19.0,23.0,69,0.00,,,0.00,Wunderground v.1.15,2013-04-08 09:37:00,
2013-04-08 04:42:00,61.7,51.4,29.84,SE,145,22.0,24.0,69,0.00,,,0.00,Wunderground v.1.15,2013-04-08 09:42:00,
2013-04-08 04:47:00,61.8,51.9,29.84,SSE,148,19.0,24.0,70,0.00,,,0.00,Wunderground v.1.15,2013-04-08 09:47:00,
2013-04-08 04:52:00,61.8,51.5,29.84,SE,136,15.0,23.0,69,0.00,,,0.00,Wunderground v.1.15,2013-04-08 09:52:00,
2013-04-08 04:58:00,61.9,51.6,29.84,SE,132,22.0,25.0,69,0.00,,,0.00,Wunderground v.1.15,2013-04-08 09:58:00,
2013-04-08 05:03:00,62.0,51.7,29.84,SE,136,19.0,24.0,69,0.00,,,0.00,Wunderground v.1.15,2013-04-08 10:03:00,
2013-04-08 05:08:00,62.2,51.9,29.84,SE,146,19.0,26.0,69,0.00,,,0.00,Wunderground v.1.15,2013-04-08 10:08:00,
2013-04-08 05:13:00,62.2,51.9,29.84,West,279,20.0,21.0,69,0.00,,,0.00,Wunderground v.1.15,2013-04-08 10:13:00,
2013-04-08 05:18:00,62.4,52.1,29.84,SE,134,16.0,25.0,69,0.00,,,0.00,Wunderground v.1.15,2013-04-08 10:18:00,
2013-04-08 05:23:00,62.5,52.2,29.84,West,279,19.0,26.0,69,0.00,,,0.00,Wunderground v.1.15,2013-04-08 10:23:00,
2013-04-08 05:28:00,62.6,52.3,29.84,SSE,153,11.0,26.0,69,0.00,,,0.00,Wunderground v.1.15,2013-04-08 10:28:00,
2013-04-08 05:33:00,62.8,52.5,29.85,SE,144,14.0,21.0,69,0.00,,,0.00,Wunderground v.1.15,2013-04-08 10:33:00,
2013-04-08 05:38:00,62.9,52.6,29.85,SSE,153,18.0,23.0,69,0.00,,,0.00,Wunderground v.1.15,2013-04-08 10:38:00,
2013-04-08 05:43:00,63.1,52.8,29.85,SSE,167,11.0,22.0,69,0.00,,,0.00,Wunderground v.1.15,2013-04-08 10:43:00,
2013-04-08 05:48:00,63.1,52.8,29.85,West,279,21.0,24.0,69,0.00,,,0.00,Wunderground v.1.15,2013-04-08 10:48:00,
2013-04-08 05:53:00,63.1,52.8,29.85,West,279,21.0,27.0,69,0.00,,,0.00,Wunderground v.1.15,2013-04-08 10:53:00,
2013-04-08 05:58:00,63.3,53.0,29.85,SSE,150,24.0,27.0,69,0.00,,,0.00,Wunderground v.1.15,2013-04-08 10:58:00,
2013-04-08 06:03:00,63.4,53.0,29.85,SSE,148,18.0,22.0,69,0.00,,,0.00,Wunderground v.1.15,2013-04-08 11:03:00,
2013-04-08 06:08:00,63.3,53.0,29.86,SSE,154,18.0,22.0,69,0.00,,,0.00,Wunderground v.1.15,2013-04-08 11:08:00,
2013-04-08 06:13:00,63.3,53.3,29.86,SSE,150,22.0,24.0,70,0.00,,,0.00,Wunderground v.1.15,2013-04-08 11:13:00,
2013-04-08 06:18:00,63.3,53.3,29.87,SSE,156,19.0,26.0,70,0.00,,,0.00,Wunderground v.1.15,2013-04-08 11:18:00,
2013-04-08 06:23:00,63.5,53.5,29.87,SSE,161,20.0,23.0,70,0.00,,,0.00,Wunderground v.1.15,2013-04-08 11:23:00,
2013-04-08 06:28:00,63.6,53.6,29.87,SSE,164,17.0,25.0,70,0.00,,,0.00,Wunderground v.1.15,2013-04-08 11:28:00,
2013-04-08 06:33:00,63.7,54.1,29.87,South,169,16.0,31.0,71,0.00,,,0.00,Wunderground v.1.15,2013-04-08 11:33:00,
2013-04-08 06:38:00,63.8,54.2,29.88,West,279,16.0,31.0,71,0.00,,,0.00,Wunderground v.1.15,2013-04-08 11:38:00,
2013-04-08 06:43:00,63.9,54.3,29.88,South,179,18.0,26.0,71,0.00,,,0.00,Wunderground v.1.15,2013-04-08 11:43:00,
2013-04-08 06:48:00,63.9,54.3,29.88,West,279,16.0,26.0,71,0.00,,,0.00,Wunderground v.1.15,2013-04-08 11:48:00,
2013-04-08 06:53:00,63.8,54.2,29.88,SSE,165,17.0,25.0,71,0.00,,,0.00,Wunderground v.1.15,2013-04-08 11:53:00,
2013-04-08 06:58:00,63.9,54.3,29.88,South,172,17.0,25.0,71,0.00,,,0.00,Wunderground v.1.15,2013-04-08 11:58:00,
2013-04-08 07:04:00,63.8,54.2,29.88,SSE,153,16.0,24.0,71,0.00,,,0.00,Wunderground v.1.15,2013-04-08 12:04:00,
2013-04-08 07:09:00,63.8,54.6,29.88,SSE,161,17.0,24.0,72,0.00,,,0.00,Wunderground v.1.15,2013-04-08 12:09:00,
2013-04-08 07:14:00,63.8,54.6,29.88,West,279,23.0,24.0,72,0.00,,,0.00,Wunderground v.1.15,2013-04-08 12:14:00,
2013-04-08 07:19:00,63.8,54.6,29.89,SSE,158,17.0,26.0,72,0.00,,,0.00,Wunderground v.1.15,2013-04-08 12:19:00,
2013-04-08 07:24:00,63.8,54.6,29.88,SSE,154,22.0,26.0,72,0.00,,,0.00,Wunderground v.1.15,2013-04-08 12:24:00,
2013-04-08 07:29:00,63.8,54.6,29.89,SSE,165,16.0,26.0,72,0.00,,,0.00,Wunderground v.1.15,2013-04-08 12:29:00,
2013-04-08 07:34:00,63.9,54.7,29.89,SSE,154,18.0,26.0,72,0.00,,,0.00,Wunderground v.1.15,2013-04-08 12:34:00,
2013-04-08 07:40:00,63.9,55.1,29.89,SSE,157,23.0,26.0,73,0.00,,,0.00,Wunderground v.1.15,2013-04-08 12:40:00,
2013-04-08 07:45:00,64.0,55.2,29.89,West,279,26.0,31.0,73,0.00,,,0.00,Wunderground v.1.15,2013-04-08 12:45:00,
2013-04-08 07:50:00,64.1,55.3,29.89,SSE,163,19.0,31.0,73,0.00,,,0.00,Wunderground v.1.15,2013-04-08 12:50:00,
2013-04-08 07:55:00,64.2,55.4,29.89,SSE,147,18.0,30.0,73,0.00,,,0.00,Wunderground v.1.15,2013-04-08 12:55:00,
2013-04-08 08:00:00,64.3,55.5,29.89,SE,146,19.0,19.0,73,0.00,,,0.00,Wunderground v.1.15,2013-04-08 13:00:00,
2013-04-08 08:05:00,64.4,55.6,29.89,SSE,168,19.0,21.0,73,0.00,,,0.00,Wunderground v.1.15,2013-04-08 13:05:00,
2013-04-08 08:10:00,64.5,55.7,29.89,SSE,157,22.0,22.0,73,0.00,,,0.00,Wunderground v.1.15,2013-04-08 13:10:00,
2013-04-08 08:15:00,64.6,55.7,29.89,SE,146,21.0,35.0,73,0.00,,,0.00,Wunderground v.1.15,2013-04-08 13:15:00,
2013-04-08 08:20:00,64.7,55.8,29.89,SSE,158,15.0,22.0,73,0.00,,,0.00,Wunderground v.1.15,2013-04-08 13:20:00,
2013-04-08 08:25:00,64.9,56.0,29.89,SSE,161,25.0,29.0,73,0.00,,,0.00,Wunderground v.1.15,2013-04-08 13:25:00,
2013-04-08 08:30:00,65.0,56.1,29.89,South,179,21.0,23.0,73,0.00,,,0.00,Wunderground v.1.15,2013-04-08 13:30:00,
2013-04-08 08:35:00,65.0,56.1,29.89,West,279,21.0,33.0,73,0.00,,,0.00,Wunderground v.1.15,2013-04-08 13:35:00,
2013-04-08 08:40:00,65.0,56.1,29.89,South,173,27.0,27.0,73,0.00,,,0.00,Wunderground v.1.15,2013-04-08 13:40:00,
2013-04-08 08:45:00,65.1,56.2,29.89,SSE,152,25.0,27.0,73,0.00,,,0.00,Wunderground v.1.15,2013-04-08 13:45:00,
2013-04-08 08:50:00,65.3,56.4,29.90,SSE,153,19.0,22.0,73,0.00,,,0.00,Wunderground v.1.15,2013-04-08 13:50:00,
2013-04-08 08:55:00,65.5,56.6,29.89,SSE,165,18.0,32.0,73,0.00,,,0.00,Wunderground v.1.15,2013-04-08 13:55:00,
2013-04-08 09:00:00,65.5,56.6,29.89,South,178,31.0,31.0,73,0.00,,,0.00,Wunderground v.1.15,2013-04-08 14:00:00,
2013-04-08 09:05:00,65.8,56.9,29.89,West,279,19.0,34.0,73,0.00,,,0.00,Wunderground v.1.15,2013-04-08 14:05:00,
2013-04-08 09:10:00,66.3,57.0,29.89,SSE,168,28.0,29.0,72,0.00,,,0.00,Wunderground v.1.15,2013-04-08 14:10:00,
2013-04-08 09:15:00,67.1,57.4,29.89,SE,143,25.0,32.0,71,0.00,,,0.00,Wunderground v.1.15,2013-04-08 14:15:00,
2013-04-08 09:20:00,67.9,57.8,29.89,SSE,148,20.0,26.0,70,0.00,,,0.00,Wunderground v.1.15,2013-04-08 14:20:00,
2013-04-08 09:25:00,68.4,57.8,29.89,SSE,161,19.0,35.0,69,0.00,,,0.00,Wunderground v.1.15,2013-04-08 14:25:00,
2013-04-08 09:30:00,68.8,57.8,29.89,SSE,155,29.0,36.0,68,0.00,,,0.00,Wunderground v.1.15,2013-04-08 14:30:00,
2013-04-08 09:35:00,69.0,58.0,29.89,SSE,154,21.0,36.0,68,0.00,,,0.00,Wunderground v.1.15,2013-04-08 14:35:00,
2013-04-08 09:41:00,69.3,57.5,29.89,SSE,155,20.0,32.0,66,0.00,,,0.00,Wunderground v.1.15,2013-04-08 14:41:00,
2013-04-08 09:46:00,69.5,58.1,29.89,West,279,16.0,32.0,67,0.00,,,0.00,Wunderground v.1.15,2013-04-08 14:46:00,
2013-04-08 09:51:00,69.3,57.9,29.89,SSE,165,29.0,32.0,67,0.00,,,0.00,Wunderground v.1.15,2013-04-08 14:51:00,
2013-04-08 09:56:00,69.0,58.0,29.89,SSE,167,25.0,32.0,68,0.00,,,0.00,Wunderground v.1.15,2013-04-08 14:56:00,
2013-04-08 10:01:00,68.5,57.5,29.90,SSE,164,33.0,36.0,68,0.00,,,0.00,Wunderground v.1.15,2013-04-08 15:01:00,
2013-04-08 10:06:00,68.0,57.0,29.90,SSE,161,17.0,36.0,68,0.00,,,0.00,Wunderground v.1.15,2013-04-08 15:06:00,
2013-04-08 10:11:00,67.6,57.1,29.90,SSE,164,25.0,30.0,69,0.00,,,0.00,Wunderground v.1.15,2013-04-08 15:11:00,
2013-04-08 10:17:00,67.5,57.4,29.90,SSE,156,17.0,33.0,70,0.00,,,0.00,Wunderground v.1.15,2013-04-08 15:17:00,
2013-04-08 10:22:00,67.7,57.6,29.90,West,279,21.0,24.0,70,0.00,,,0.00,Wunderground v.1.15,2013-04-08 15:22:00,
2013-04-08 10:27:00,68.1,57.9,29.90,SSE,154,22.0,31.0,70,0.00,,,0.00,Wunderground v.1.15,2013-04-08 15:27:00,
2013-04-08 10:32:00,68.5,57.9,29.90,South,176,23.0,31.0,69,0.00,,,0.00,Wunderground v.1.15,2013-04-08 15:32:00,
2013-04-08 10:37:00,68.6,57.6,29.90,South,172,20.0,31.0,68,0.00,,,0.00,Wunderground v.1.15,2013-04-08 15:37:00,
2013-04-08 10:42:00,68.9,58.3,29.91,SSE,164,14.0,24.0,69,0.00,,,0.00,Wunderground v.1.15,2013-04-08 15:42:00,
2013-04-08 10:47:00,69.2,57.8,29.91,South,171,17.0,32.0,67,0.00,,,0.00,Wunderground v.1.15,2013-04-08 15:47:00,
2013-04-08 10:52:00,69.4,57.5,29.91,West,279,30.0,30.0,66,0.00,,,0.00,Wunderground v.1.15,2013-04-08 15:52:00,
2013-04-08 10:57:00,69.4,58.0,29.91,SSE,165,23.0,30.0,67,0.00,,,0.00,Wunderground v.1.15,2013-04-08 15:57:00,
2013-04-08 11:02:00,69.4,57.1,29.91,SSE,163,21.0,28.0,65,0.00,,,0.00,Wunderground v.1.15,2013-04-08 16:02:00,
2013-04-08 11:07:00,69.6,57.3,29.91,SE,143,15.0,28.0,65,0.00,,,0.00,Wunderground v.1.15,2013-04-08 16:07:00,
2013-04-08 11:12:00,69.7,57.4,29.91,South,180,32.0,34.0,65,0.00,,,0.00,Wunderground v.1.15,2013-04-08 16:12:00,
2013-04-08 11:17:00,69.7,57.4,29.92,South,176,32.0,34.0,65,0.00,,,0.00,Wunderground v.1.15,2013-04-08 16:17:00,
2013-04-08 11:22:00,69.6,57.3,29.92,South,180,28.0,31.0,65,0.00,,,0.00,Wunderground v.1.15,2013-04-08 16:22:00,
2013-04-08 11:27:00,69.7,57.0,29.92,South,180,28.0,33.0,64,0.00,,,0.00,Wunderground v.1.15,2013-04-08 16:27:00,
2013-04-08 11:33:00,69.6,56.9,29.92,West,279,22.0,28.0,64,0.00,,,0.00,Wunderground v.1.15,2013-04-08 16:33:00,
2013-04-08 11:38:00,69.6,56.9,29.91,West,279,26.0,34.0,64,0.00,,,0.00,Wunderground v.1.15,2013-04-08 16:38:00,
2013-04-08 11:43:00,69.7,57.0,29.91,West,279,21.0,25.0,64,0.00,,,0.00,Wunderground v.1.15,2013-04-08 16:43:00,
2013-04-08 11:48:00,69.9,57.2,29.92,SSE,165,28.0,28.0,64,0.00,,,0.00,Wunderground v.1.15,2013-04-08 16:48:00,
2013-04-08 11:53:00,70.0,56.4,29.91,South,169,29.0,34.0,62,0.00,,,0.00,Wunderground v.1.15,2013-04-08 16:53:00,
2013-04-08 11:58:00,70.0,56.8,29.92,SSE,163,12.0,34.0,63,0.00,,,0.00,Wunderground v.1.15,2013-04-08 16:58:00,
2013-04-08 12:03:00,70.1,56.5,29.92,West,279,28.0,38.0,62,0.00,,,0.00,Wunderground v.1.15,2013-04-08 17:03:00,
2013-04-08 12:08:00,69.9,56.7,29.92,West,279,33.0,38.0,63,0.00,,,0.00,Wunderground v.1.15,2013-04-08 17:08:00,
2013-04-08 12:13:00,69.6,56.4,29.92,South,174,22.0,36.0,63,0.00,,,0.00,Wunderground v.1.15,2013-04-08 17:13:00,
2013-04-08 12:18:00,69.5,56.3,29.91,West,279,24.0,36.0,63,0.00,,,0.00,Wunderground v.1.15,2013-04-08 17:18:00,
2013-04-08 12:23:00,69.4,56.3,29.90,South,172,19.0,24.0,63,0.00,,,0.00,Wunderground v.1.15,2013-04-08 17:23:00,
2013-04-08 12:28:00,69.3,56.2,29.89,SSE,161,12.0,24.0,63,0.00,,,0.00,Wunderground v.1.15,2013-04-08 17:28:00,
2013-04-08 12:33:00,69.3,56.6,29.88,West,279,12.0,19.0,64,0.00,,,0.00,Wunderground v.1.15,2013-04-08 17:33:00,
2013-04-08 12:38:00,69.7,57.4,29.89,West,279,19.0,22.0,65,0.00,,,0.00,Wunderground v.1.15,2013-04-08 17:38:00,
2013-04-08 12:43:00,70.3,57.1,29.88,SE,140,20.0,25.0,63,0.00,,,0.00,Wunderground v.1.15,2013-04-08 17:43:00,
2013-04-08 12:48:00,70.8,56.7,29.86,West,279,21.0,30.0,61,0.00,,,0.00,Wunderground v.1.15,2013-04-08 17:48:00,
2013-04-08 12:53:00,71.0,56.9,29.85,SE,137,31.0,38.0,61,0.00,,,0.00,Wunderground v.1.15,2013-04-08 17:53:00,
2013-04-08 12:58:00,70.8,56.7,29.86,ESE,108,26.0,38.0,61,0.00,,,0.00,Wunderground v.1.15,2013-04-08 17:58:00,
2013-04-08 13:03:00,70.7,57.0,29.86,SSE,157,30.0,33.0,62,0.00,,,0.00,Wunderground v.1.15,2013-04-08 18:03:00,
2013-04-08 13:08:00,70.8,57.6,29.86,SE,141,28.0,33.0,63,0.00,,,0.00,Wunderground v.1.15,2013-04-08 18:08:00,
2013-04-08 13:13:00,71.4,57.2,29.85,West,279,32.0,38.0,61,0.00,,,0.00,Wunderground v.1.15,2013-04-08 18:13:00,
2013-04-08 13:18:00,72.1,57.9,29.85,SE,142,28.0,40.0,61,0.00,,,0.00,Wunderground v.1.15,2013-04-08 18:18:00,
2013-04-08 13:23:00,72.5,57.8,29.85,SE,132,27.0,37.0,60,0.00,,,0.00,Wunderground v.1.15,2013-04-08 18:23:00,
2013-04-08 13:28:00,73.4,58.7,29.85,SE,128,34.0,39.0,60,0.00,,,0.00,Wunderground v.1.15,2013-04-08 18:28:00,
2013-04-08 13:33:00,74.2,58.0,29.84,SE,140,37.0,39.0,57,0.00,,,0.00,Wunderground v.1.15,2013-04-08 18:33:00,
2013-04-08 13:38:00,74.2,57.5,29.85,SSE,151,31.0,39.0,56,0.00,,,0.00,Wunderground v.1.15,2013-04-08 18:38:00,
2013-04-08 13:43:00,73.9,58.2,29.87,SSE,157,20.0,33.0,58,0.00,,,0.00,Wunderground v.1.15,2013-04-08 18:43:00,
2013-04-08 13:48:00,74.4,58.2,29.88,SSE,157,27.0,36.0,57,0.00,,,0.00,Wunderground v.1.15,2013-04-08 18:48:00,
2013-04-08 13:54:00,74.8,57.5,29.88,SSE,151,29.0,37.0,55,0.00,,,0.00,Wunderground v.1.15,2013-04-08 18:54:00,
2013-04-08 14:00:00,74.6,58.4,29.88,South,184,14.0,39.0,57,0.00,,,0.00,Wunderground v.1.15,2013-04-08 19:00:00,
2013-04-08 14:05:00,74.5,58.3,29.88,West,279,19.0,31.0,57,0.00,,,0.00,Wunderground v.1.15,2013-04-08 19:05:00,
2013-04-08 14:10:00,74.3,58.1,29.88,SSE,157,18.0,22.0,57,0.00,,,0.00,Wunderground v.1.15,2013-04-08 19:10:00,
2013-04-08 14:15:00,74.2,58.5,29.88,SE,130,15.0,25.0,58,0.00,,,0.00,Wunderground v.1.15,2013-04-08 19:15:00,
2013-04-08 14:20:00,74.0,57.8,29.88,SSE,163,27.0,31.0,57,0.00,,,0.00,Wunderground v.1.15,2013-04-08 19:20:00,
2013-04-08 14:25:00,73.6,57.4,29.88,South,177,25.0,31.0,57,0.00,,,0.00,Wunderground v.1.15,2013-04-08 19:25:00,
2013-04-08 14:30:00,73.6,57.9,29.88,South,186,16.0,24.0,58,0.00,,,0.00,Wunderground v.1.15,2013-04-08 19:30:00,
2013-04-08 14:35:00,73.6,57.4,29.88,South,176,24.0,33.0,57,0.00,,,0.00,Wunderground v.1.15,2013-04-08 19:35:00,
2013-04-08 14:40:00,73.7,58.0,29.88,South,171,16.0,26.0,58,0.00,,,0.00,Wunderground v.1.15,2013-04-08 19:40:00,
2013-04-08 14:45:00,73.9,58.7,29.87,SSE,167,20.0,27.0,59,0.00,,,0.00,Wunderground v.1.15,2013-04-08 19:45:00,
2013-04-08 14:51:00,74.1,58.9,29.87,SSE,163,16.0,20.0,59,0.00,,,0.00,Wunderground v.1.15,2013-04-08 19:51:00,
2013-04-08 14:56:00,74.4,58.7,29.86,SSE,165,14.0,20.0,58,0.00,,,0.00,Wunderground v.1.15,2013-04-08 19:56:00,
2013-04-08 15:01:00,74.6,58.4,29.86,SSE,168,14.0,19.0,57,0.00,,,0.00,Wunderground v.1.15,2013-04-08 20:01:00,
2013-04-08 15:06:00,74.7,58.0,29.87,SSE,157,28.0,28.0,56,0.00,,,0.00,Wunderground v.1.15,2013-04-08 20:06:00,
2013-04-08 15:12:00,74.3,58.1,29.86,West,279,19.0,23.0,57,0.00,,,0.00,Wunderground v.1.15,2013-04-08 20:12:00,
2013-04-08 15:17:00,74.3,58.1,29.86,South,169,20.0,23.0,57,0.00,,,0.00,Wunderground v.1.15,2013-04-08 20:17:00,
2013-04-08 15:22:00,74.5,58.3,29.86,SE,144,15.0,19.0,57,0.00,,,0.00,Wunderground v.1.15,2013-04-08 20:22:00,
2013-04-08 15:27:00,74.6,57.9,29.86,SSE,154,24.0,27.0,56,0.00,,,0.00,Wunderground v.1.15,2013-04-08 20:27:00,
2013-04-08 15:32:00,74.6,57.4,29.86,West,279,21.0,23.0,55,0.00,,,0.00,Wunderground v.1.15,2013-04-08 20:32:00,
2013-04-08 15:37:00,74.4,57.7,29.86,SSE,161,22.0,26.0,56,0.00,,,0.00,Wunderground v.1.15,2013-04-08 20:37:00,
2013-04-08 15:42:00,74.2,58.0,29.86,SSE,152,11.0,26.0,57,0.00,,,0.00,Wunderground v.1.15,2013-04-08 20:42:00,
2013-04-08 15:47:00,74.3,58.1,29.85,South,172,24.0,26.0,57,0.00,,,0.00,Wunderground v.1.15,2013-04-08 20:47:00,
2013-04-08 15:52:00,74.4,58.2,29.86,SSE,153,23.0,25.0,57,0.00,,,0.00,Wunderground v.1.15,2013-04-08 20:52:00,
2013-04-08 15:58:00,74.6,58.4,29.86,SSE,162,22.0,25.0,57,0.00,,,0.00,Wunderground v.1.15,2013-04-08 20:58:00,
2013-04-08 16:03:00,74.8,58.1,29.86,SSE,155,19.0,25.0,56,0.00,,,0.00,Wunderground v.1.15,2013-04-08 21:03:00,
2013-04-08 16:08:00,74.7,58.0,29.86,SSE,149,21.0,26.0,56,0.00,,,0.00,Wunderground v.1.15,2013-04-08 21:08:00,
2013-04-08 16:13:00,74.7,58.0,29.86,West,279,13.0,21.0,56,0.00,,,0.00,Wunderground v.1.15,2013-04-08 21:13:00,
2013-04-08 16:18:00,74.7,58.0,29.85,SSE,147,24.0,27.0,56,0.00,,,0.00,Wunderground v.1.15,2013-04-08 21:18:00,
2013-04-08 16:23:00,74.6,57.9,29.85,SSE,151,17.0,24.0,56,0.00,,,0.00,Wunderground v.1.15,2013-04-08 21:23:00,
2013-04-08 16:27:00,74.6,58.4,29.86,South,169,17.0,25.0,57,0.00,,,0.00,Wunderground v.1.15,2013-04-08 21:27:00,
2013-04-08 16:32:00,74.6,57.9,29.85,West,279,20.0,24.0,56,0.00,,,0.00,Wunderground v.1.15,2013-04-08 21:32:00,
2013-04-08 16:37:00,74.6,57.9,29.85,SSE,148,13.0,24.0,56,0.00,,,0.00,Wunderground v.1.15,2013-04-08 21:37:00,
2013-04-08 16:42:00,74.7,58.0,29.85,SSE,157,18.0,18.0,56,0.00,,,0.00,Wunderground v.1.15,2013-04-08 21:42:00,
2013-04-08 16:47:00,74.7,58.0,29.85,SSE,157,19.0,20.0,56,0.00,,,0.00,Wunderground v.1.15,2013-04-08 21:47:00,
2013-04-08 16:52:00,74.7,58.0,29.85,SSE,162,16.0,23.0,56,0.00,,,0.00,Wunderground v.1.15,2013-04-08 21:52:00,
2013-04-08 16:58:00,74.6,57.4,29.85,SSE,163,16.0,23.0,55,0.00,,,0.00,Wunderground v.1.15,2013-04-08 21:58:00,
2013-04-08 17:03:00,74.5,57.3,29.85,SSE,159,16.0,21.0,55,0.00,,,0.00,Wunderground v.1.15,2013-04-08 22:03:00,
2013-04-08 17:08:00,74.3,57.1,29.85,SSE,155,16.0,21.0,55,0.00,,,0.00,Wunderground v.1.15,2013-04-08 22:08:00,
2013-04-08 17:13:00,74.3,57.6,29.85,SSE,147,17.0,19.0,56,0.00,,,0.00,Wunderground v.1.15,2013-04-08 22:13:00,
2013-04-08 17:18:00,74.2,57.5,29.85,SSE,155,11.0,19.0,56,0.00,,,0.00,Wunderground v.1.15,2013-04-08 22:18:00,
2013-04-08 17:23:00,74.2,57.5,29.85,SSE,160,13.0,18.0,56,0.00,,,0.00,Wunderground v.1.15,2013-04-08 22:23:00,
2013-04-08 17:28:00,74.1,57.4,29.85,West,279,15.0,20.0,56,0.00,,,0.00,Wunderground v.1.15,2013-04-08 22:28:00,
2013-04-08 17:33:00,74.1,57.9,29.85,SSE,161,11.0,16.0,57,0.00,,,0.00,Wunderground v.1.15,2013-04-08 22:33:00,
2013-04-08 17:38:00,74.0,57.3,29.85,SSE,166,14.0,22.0,56,0.00,,,0.00,Wunderground v.1.15,2013-04-08 22:38:00,
2013-04-08 17:43:00,73.8,57.1,29.85,SSE,161,11.0,19.0,56,0.00,,,0.00,Wunderground v.1.15,2013-04-08 22:43:00,
2013-04-08 17:48:00,73.7,57.0,29.86,West,279,13.0,19.0,56,0.00,,,0.00,Wunderground v.1.15,2013-04-08 22:48:00,
2013-04-08 17:53:00,73.6,57.4,29.86,SSE,155,11.0,16.0,57,0.00,,,0.00,Wunderground v.1.15,2013-04-08 22:53:00,
2013-04-08 17:58:00,73.5,57.3,29.86,South,178,16.0,20.0,57,0.00,,,0.00,Wunderground v.1.15,2013-04-08 22:58:00,
2013-04-08 18:03:00,73.4,57.2,29.85,SSE,166,9.0,17.0,57,0.00,,,0.00,Wunderground v.1.15,2013-04-08 23:03:00,
2013-04-08 18:08:00,73.3,57.1,29.85,SSE,152,15.0,18.0,57,0.00,,,0.00,Wunderground v.1.15,2013-04-08 23:08:00,
2013-04-08 18:13:00,73.3,57.1,29.85,SSE,165,10.0,19.0,57,0.00,,,0.00,Wunderground v.1.15,2013-04-08 23:13:00,
2013-04-08 18:18:00,73.2,57.5,29.85,South,176,10.0,19.0,58,0.00,,,0.00,Wunderground v.1.15,2013-04-08 23:18:00,
2013-04-08 18:23:00,73.2,57.5,29.86,West,279,7.0,12.0,58,0.00,,,0.00,Wunderground v.1.15,2013-04-08 23:23:00,
2013-04-08 18:29:00,73.1,57.4,29.86,SSE,165,9.0,12.0,58,0.00,,,0.00,Wunderground v.1.15,2013-04-08 23:29:00,
2013-04-08 18:34:00,73.0,57.3,29.86,South,175,7.0,15.0,58,0.00,,,0.00,Wunderground v.1.15,2013-04-08 23:34:00,
2013-04-08 18:39:00,72.9,57.7,29.86,SSW,201,7.0,15.0,59,0.00,,,0.00,Wunderground v.1.15,2013-04-08 23:39:00,
2013-04-08 18:44:00,72.8,57.6,29.86,West,279,9.0,14.0,59,0.00,,,0.00,Wunderground v.1.15,2013-04-08 23:44:00,
2013-04-08 18:49:00,72.7,57.5,29.86,SSE,156,6.0,14.0,59,0.00,,,0.00,Wunderground v.1.15,2013-04-08 23:49:00,
2013-04-08 18:54:00,72.6,57.9,29.86,West,279,6.0,10.0,60,0.00,,,0.00,Wunderground v.1.15,2013-04-08 23:54:00,
2013-04-08 18:59:00,72.5,57.8,29.86,South,187,5.0,10.0,60,0.00,,,0.00,Wunderground v.1.15,2013-04-08 23:59:00,
2013-04-08 19:04:00,72.3,57.6,29.87,South,171,8.0,10.0,60,0.00,,,0.00,Wunderground v.1.15,2013-04-09 00:04:00,
2013-04-08 19:09:00,72.2,57.5,29.86,South,182,7.0,10.0,60,0.00,,,0.00,Wunderground v.1.15,2013-04-09 00:09:00,
2013-04-08 19:14:00,72.1,57.4,29.86,South,182,9.0,10.0,60,0.00,,,0.00,Wunderground v.1.15,2013-04-09 00:14:00,
2013-04-08 19:19:00,72.0,57.4,29.86,West,279,8.0,10.0,60,0.00,,,0.00,Wunderground v.1.15,2013-04-09 00:19:00,
2013-04-08 19:24:00,71.8,57.2,29.86,South,179,6.0,9.0,60,0.00,,,0.00,Wunderground v.1.15,2013-04-09 00:24:00,
2013-04-08 19:29:00,71.6,57.4,29.86,South,176,7.0,10.0,61,0.00,,,0.00,Wunderground v.1.15,2013-04-09 00:29:00,
2013-04-08 19:34:00,71.3,57.2,29.87,West,279,7.0,9.0,61,0.00,,,0.00,Wunderground v.1.15,2013-04-09 00:34:00,
2013-04-08 19:39:00,71.1,57.4,29.86,South,174,7.0,9.0,62,0.00,,,0.00,Wunderground v.1.15,2013-04-09 00:39:00,
2013-04-08 19:44:00,70.7,57.5,29.87,South,178,6.0,8.0,63,0.00,,,0.00,Wunderground v.1.15,2013-04-09 00:44:00,
2013-04-08 19:49:00,70.4,57.6,29.87,South,176,6.0,8.0,64,0.00,,,0.00,Wunderground v.1.15,2013-04-09 00:49:00,
2013-04-08 19:54:00,70.0,57.7,29.87,South,174,5.0,7.0,65,0.00,,,0.00,Wunderground v.1.15,2013-04-09 00:54:00,
2013-04-08 19:59:00,69.3,57.0,29.87,South,178,5.0,7.0,65,0.00,,,0.00,Wunderground v.1.15,2013-04-09 00:59:00,
2013-04-08 20:04:00,68.6,56.8,29.88,South,176,4.0,6.0,66,0.00,,,0.00,Wunderground v.1.15,2013-04-09 01:04:00,
2013-04-08 20:09:00,68.1,57.1,29.87,South,174,4.0,6.0,68,0.00,,,0.00,Wunderground v.1.15,2013-04-09 01:09:00,
2013-04-08 20:15:00,67.6,57.1,29.88,South,174,4.0,4.0,69,0.00,,,0.00,Wunderground v.1.15,2013-04-09 01:15:00,
2013-04-08 20:20:00,67.3,57.2,29.88,West,279,4.0,5.0,70,0.00,,,0.00,Wunderground v.1.15,2013-04-09 01:20:00,
2013-04-08 20:25:00,67.0,56.9,29.88,South,176,4.0,5.0,70,0.00,,,0.00,Wunderground v.1.15,2013-04-09 01:25:00,
2013-04-08 20:30:00,66.6,56.9,29.88,South,178,4.0,5.0,71,0.00,,,0.00,Wunderground v.1.15,2013-04-09 01:30:00,
2013-04-08 20:35:00,66.3,57.0,29.88,South,174,5.0,5.0,72,0.00,,,0.00,Wunderground v.1.15,2013-04-09 01:35:00,
2013-04-08 20:40:00,66.0,56.3,29.88,SSE,157,5.0,6.0,71,0.00,,,0.00,Wunderground v.1.15,2013-04-09 01:40:00,
2013-04-08 20:45:00,65.6,56.3,29.88,SE,142,4.0,6.0,72,0.00,,,0.00,Wunderground v.1.15,2013-04-09 01:45:00,
2013-04-08 20:50:00,65.3,56.4,29.88,SE,127,6.0,6.0,73,0.00,,,0.00,Wunderground v.1.15,2013-04-09 01:50:00,
2013-04-08 20:55:00,65.0,56.5,29.88,West,279,5.0,6.0,74,0.00,,,0.00,Wunderground v.1.15,2013-04-09 01:55:00,
2013-04-08 21:00:00,64.7,56.6,29.88,SE,124,4.0,5.0,75,0.00,,,0.00,Wunderground v.1.15,2013-04-09 02:00:00,
2013-04-08 21:05:00,64.5,56.4,29.88,West,279,2.0,6.0,75,0.00,,,0.00,Wunderground v.1.15,2013-04-09 02:05:00,
2013-04-08 21:10:00,64.2,56.1,29.89,ESE,115,0.0,3.0,75,0.00,,,0.00,Wunderground v.1.15,2013-04-09 02:10:00,
2013-04-08 21:15:00,63.9,56.2,29.89,East,94,2.0,3.0,76,0.00,,,0.00,Wunderground v.1.15,2013-04-09 02:15:00,
2013-04-08 21:20:00,63.7,56.0,29.89,ESE,114,5.0,5.0,76,0.00,,,0.00,Wunderground v.1.15,2013-04-09 02:20:00,
2013-04-08 21:25:00,63.5,55.8,29.89,West,279,6.0,9.0,76,0.00,,,0.00,Wunderground v.1.15,2013-04-09 02:25:00,
2013-04-08 21:30:00,63.3,56.0,29.89,ESE,113,5.0,7.0,77,0.00,,,0.00,Wunderground v.1.15,2013-04-09 02:30:00,
2013-04-08 21:35:00,63.1,55.8,29.89,ESE,121,10.0,12.0,77,0.00,,,0.00,Wunderground v.1.15,2013-04-09 02:35:00,
2013-04-08 21:40:00,62.9,55.9,29.90,ESE,110,9.0,12.0,78,0.00,,,0.00,Wunderground v.1.15,2013-04-09 02:40:00,
2013-04-08 21:45:00,62.7,55.7,29.90,SE,125,16.0,20.0,78,0.00,,,0.00,Wunderground v.1.15,2013-04-09 02:45:00,
2013-04-08 21:50:00,62.8,55.8,29.90,West,279,16.0,20.0,78,0.00,,,0.00,Wunderground v.1.15,2013-04-09 02:50:00,
2013-04-08 21:55:00,63.4,56.1,29.90,West,279,13.0,20.0,77,0.00,,,0.00,Wunderground v.1.15,2013-04-09 02:55:00,
2013-04-08 22:00:00,63.9,56.2,29.90,West,279,18.0,19.0,76,0.00,,,0.00,Wunderground v.1.15,2013-04-09 03:00:00,
2013-04-08 22:05:00,64.3,56.2,29.90,SE,137,17.0,19.0,75,0.00,,,0.00,Wunderground v.1.15,2013-04-09 03:05:00,
2013-04-08 22:10:00,64.5,56.0,29.90,West,279,15.0,16.0,74,0.00,,,0.00,Wunderground v.1.15,2013-04-09 03:10:00,
2013-04-08 22:15:00,64.5,56.0,29.90,West,279,15.0,16.0,74,0.00,,,0.00,Wunderground v.1.15,2013-04-09 03:15:00,
2013-04-08 22:20:00,64.4,55.9,29.91,SE,127,14.0,14.0,74,0.00,,,0.00,Wunderground v.1.15,2013-04-09 03:20:00,
2013-04-08 22:25:00,64.2,55.7,29.91,SE,132,16.0,17.0,74,0.00,,,0.00,Wunderground v.1.15,2013-04-09 03:25:00,
2013-04-08 22:31:00,64.2,55.7,29.90,SE,134,17.0,17.0,74,0.00,,,0.00,Wunderground v.1.15,2013-04-09 03:31:00,
2013-04-08 22:36:00,64.2,55.7,29.91,SE,134,17.0,18.0,74,0.00,,,0.00,Wunderground v.1.15,2013-04-09 03:36:00,
2013-04-08 22:41:00,64.2,55.7,29.91,SE,134,17.0,19.0,74,0.00,,,0.00,Wunderground v.1.15,2013-04-09 03:41:00,
2013-04-08 22:46:00,64.2,55.7,29.91,SE,134,18.0,20.0,74,0.00,,,0.00,Wunderground v.1.15,2013-04-09 03:46:00,
2013-04-08 22:51:00,64.1,55.6,29.91,West,279,18.0,19.0,74,0.00,,,0.00,Wunderground v.1.15,2013-04-09 03:51:00,
2013-04-08 22:56:00,64.1,55.3,29.91,SE,138,18.0,20.0,73,0.00,,,0.00,Wunderground v.1.15,2013-04-09 03:56:00,
2013-04-08 23:00:00,64.1,55.3,29.91,SE,132,19.0,19.0,73,0.00,,,0.00,Wunderground v.1.15,2013-04-09 04:00:00,
2013-04-08 23:05:00,64.1,55.3,29.91,West,279,17.0,19.0,73,0.00,,,0.00,Wunderground v.1.15,2013-04-09 04:05:00,
2013-04-08 23:10:00,64.0,55.2,29.91,West,279,17.0,19.0,73,0.00,,,0.00,Wunderground v.1.15,2013-04-09 04:10:00,
2013-04-08 23:15:00,64.0,55.2,29.91,West,279,16.0,19.0,73,0.00,,,0.00,Wunderground v.1.15,2013-04-09 04:15:00,
2013-04-08 23:20:00,63.9,55.1,29.92,West,279,18.0,19.0,73,0.00,,,0.00,Wunderground v.1.15,2013-04-09 04:20:00,
2013-04-08 23:25:00,63.8,55.0,29.91,West,279,17.0,19.0,73,0.00,,,0.00,Wunderground v.1.15,2013-04-09 04:25:00,
2013-04-08 23:30:00,63.7,54.9,29.91,SE,135,17.0,18.0,73,0.00,,,0.00,Wunderground v.1.15,2013-04-09 04:30:00,
2013-04-08 23:35:00,63.6,55.2,29.91,SE,137,17.0,19.0,74,0.00,,,0.00,Wunderground v.1.15,2013-04-09 04:35:00,
2013-04-08 23:40:00,63.5,55.1,29.90,SE,131,15.0,17.0,74,0.00,,,0.00,Wunderground v.1.15,2013-04-09 04:40:00,
2013-04-08 23:45:00,63.3,54.9,29.91,SE,137,17.0,19.0,74,0.00,,,0.00,Wunderground v.1.15,2013-04-09 04:45:00,
2013-04-08 23:50:00,63.2,54.8,29.90,West,279,17.0,17.0,74,0.00,,,0.00,Wunderground v.1.15,2013-04-09 04:50:00,
2013-04-08 23:55:00,63.1,55.0,29.90,SE,140,17.0,20.0,75,0.00,,,0.00,Wunderground v.1.15,2013-04-09 04:55:00,